Погода в Карши

Погода в Карши : погода сейчас, прогноз погоды и архив. Всё, что Вы хотите узнать о погоде в Карши!

Хотите узнать прогноз погоды в Карши? Тогда Вам сюда: Погода в Карши

Поиск расширенной информации на нашем сайте:

Другие новости

Новости СМИ2

Главная страница сайта

Новости сайта

03.07.2017

Напоминаем, что на нашем специализированном сайте Метеоцентр.Азия вы можете получить высокодетализированные автоматические прогнозы погоды по пунктам России, СНГ и мира в авиационном формате (включающие направление и скорость ветра, видимость, явления погоды, количество и форму облачности, нижнюю и верхнюю границу облачности).


Погода в Карши - сегодня

Время (UTC), дата Ветер
(°,м/с) 
Видим.   Явления Облачность Т
(°С)
Тd
(°С)
f(%) Тe
(°С)
Pmin
(гПа)
dP
(гПа)
Po
(мм)
O2
(г/м3)
Тmin Tmax R s Состояние
почвы
18 22.09.18 320 (СЗ) 10 км    ясно 
+16.9 +5.3 46 +18  1016.5  -0.4  730  276    +27.6       
21 22.09.18 тихо ()   10 км    ясно 
+14.4 +6.4 59 +14  1016.8  730  278           
00 23.09.18 150 (ЮВ) 10 км    ясно 
+12.6 +5.3 61 +14  1017.3  0.1  730  280           
03 23.09.18 080 (В) 10 км    ясно 
+14.2 +4.8 53 +15  1017.9  0.4  751  287           
06 23.09.18 340 (С) 10 км    ясно 
+22.3 +7 37 +22  1016.4  -0.3  730  271  +12.6         
09 23.09.18 330 (СЗ) 10 км    ясно 
+26.9 +5.5 25 +27  1015  -0.6  730  267           
12 23.09.18 290 (З) 10 км    ясно 
+27.1 +1.7 19 +27  1014.6  -0.4  729  267           
15 23.09.18 310 (СЗ) 10 км    1/0 верхняя 
[Ci fib]
+20.6 +5.5 37 +21  1017.1  1.6  731  273    +28.1       
18 23.09.18 350 (С) 10 км    1/0 верхняя 
[Ci fib]
+18 +5 42 +18  1017  -0.6  730  275    +28.1       
21 23.09.18 нст () 10 км    ясно 
+15.5 +4.3 47 +17  1016.1  -1.2  729  277           
00 24.09.18 070 (В) 10 км    ясно 
+13 +4 54 +13  1016.8  0.3  729  280           
03 24.09.18 050 (СВ) 10 км    3/0 верхняя 
[Ci fib]
+13.4 +0.9 42 +13  1017.4  19.4  751  288           
06 24.09.18 040 (СВ) 10 км    3/0 верхняя 
[Ci fib]
+24.4 +4.6 28 +24  1015  -0.7  729  269  +13         
09 24.09.18 290 (З) 10 км    3/0 верхняя 
[Ci fib]
+28.5 +4.5 22 +29  1013.8  -0.6  729  265           
12 24.09.18 330 (СЗ) 10 км    3/0 верхняя 
[Ci fib]
+29 +1.7 17 +29  1012.6  -1  728  265           
15 24.09.18 290 (З) 10 км    3/0 верхняя 
[Ci fib]
+20.8 +5 36 +21  1014  0.2  728  272    +30.1       
18 24.09.18 340 (С) 10 км    ясно 
+17.8 +3.4 38 +18  1013.5  -0.9  728  275    +30.1       
21 24.09.18 тихо ()   10 км    ясно 
+16 +6.1 52 +16  1013.4  -0.4  727  276           
00 25.09.18 070 (В) 10 км    ясно 
+13.4 +2.3 47 +14  1013.9  727  279           
03 25.09.18 090 (В) 10 км    3/0 верхняя 
[Ci fib]
+14.9 +2.9 44 +16  1014.7  20.3  751  286           
06 25.09.18 210 (ЮЗ) 10 км    3/0 верхняя 
[Ci fib]
+24.7 +8.2 35 +25  1014.8  1.6  722  265  +13.4         
09 25.09.18 230 (ЮЗ) 10 км    4/0 верхняя 
[Ci fib]
+27 +6.2 27 +27  1013.6  -1  729  266           
12 25.09.18 270 (З) 10 км    4/0 верхняя 
[Ci fib]
+27.7 +2.9 20 +28  1011.6  -1.7  727  266           
15 25.09.18 нст () 10 км    4/0 верхняя 
[Ci fib]
+22.8 +6.1 34 +23  1012.1  -0.2  727  269    +29.1       
18 25.09.18 280 (З) 10 км    4/0 верхняя 
[Ci fib]
+16 +5.6 50 +17  1013.3  0.1  727  276    +29.1       
Время (UTC), дата Ветер
(°,м/с) 
Видим.   Явления Облачность Т
(°С)
Тd
(°С)
f(%) Тe
(°С)
Pmin
(гПа)
dP
(гПа)
Po
(мм)
O2
(г/м3)
Тmin Tmax R s Состояние
почвы

Для получения пояснительной информации подведите курсор к названию столбца.

ПОГОДА в Карши - архив

Всё, что Вы хотите узнать о погоде в Карши - удобно и подробно!

Выберите нужную дату (начиная с 1 января 2015* года) и нажмите кнопку "Найти".
Будут отображены архивные сводки погоды по пункту Карши, начиная с указанной даты.


Отображать данные в формате CSV (для использования в таблицах Excel)


Внимание! Наш архив погоды предназначен исключительно для личного некоммерческого использования в познавательных целях. Если Вам необходимы официальные справки о состоянии погоды (для производственных, юридических, коммерческих и т.п. целей), обращайтесь в органы Росгидромета.

*Примечание: данная дата относится к архиву по метеостанциям СССР (Россия, СНГ, Балтия).
Архив по метеостанциям Зарубежной Европы и Азии (кроме Китая) хранится 10 дней, по другим регионам земного шара (Китай, Африка, Америка, Австралия, Океания) - 1 день.

Карши - район местоположения метеостанции


Название, широта, долгота, высота метеостанции:
Карши (аэропорт) 38.8°ш. 65.7°д. 376 м над ур. моря [Узбекистан]

Дополнительная информация

В oтличие oт бoльшинства пoгoдных сайтoв мы публикуем пoдрoбную метеoинфoрмацию в детальнoм прoфессиoнальнoм фoрмате.

Характеристики температуры и влажнoсти вoздуха измеряются на высoте 2 м в тени вдали oт зданий и деревьев.
Скoрoсть ветра измеряется на высoте 10 м (на урoвне рoста челoвека скoрoсть ветра ниже в 1.5-2 раза). Если метеoстанция нахoдится в гoрoде или в лесу, тo скoрoсть ветра занижена на 2-4 м/с пo сравнению с oткрытым местoм. Скoрoсть ветра над акватoриями крупных рек и oзёр, а также на вершинах хoлмoв на 2-5 м/с выше, чем в oбычных услoвиях.
Атмoсфернoе давление в разных тoчках местнoсти мoжет значительнo oтличаться oт давления на метеoстанции, в зависимoсти oт услoвий рельефа (при пoдъёме на 10 м давление пoнижается примернo на 1 мм рт.ст.).